Regional Weather Roundup
Issued by NWS

Home | Current Version | Previous Version | Text Only | Print | Product List | Glossary On
Versions: 1 2 3 4 5 6 7 8 9 10 11 12 13 14 15 16 17 18 19 20 21 22 23 24 25 26 27
000
ASUS44 KLIX 122312
RWRLA
LOUISIANA WEATHER ROUNDUP
NATIONAL WEATHER SERVICE NEW ORLEANS LA
500 PM CST TUE DEC 12 2017

NOTE: "FAIR" INDICATES FEW OR NO CLOUDS BELOW 12,000 FEET WITH NO
      SIGNIFICANT WEATHER AND/OR OBSTRUCTIONS TO VISIBILITY.
      SKY/WX - SKY CONDITION AND SIGNIFICANT WEATHER.
      TMP - AIR TEMPERATURE.    DP   - DEWPOINT TEMPERATURE.
      RH  - RELATIVE HUMIDITY.  PRES - PRESSURE.
      HX  - HEAT INDEX.         WCI  - WIND CHILL INDEX.

*  THESE STATIONS ARE NOT NWS OR FAA STATIONS AND ARE NOT UNDER
   NWS QUALITY CONTROL.

LAZ040-048-061>063-065-066-069-130000-
SOUTHEAST LOUISIANA

CITY           SKY/WX    TMP DP  RH WIND       PRES   REMARKS
N.O. INTL ARPT PTCLDY    58  40  51 NW7       30.13S
N.O. LAKEFRONT CLEAR     56  47  71 NW8       30.13S
N.O. DOWNTOWN* FAIR      58  38  47 NW3       30.14R
RESERVE*       FAIR      59  32  35 N7        30.14R
SLIDELL        CLEAR     56  36  47 CALM      30.12R
BATON ROUGE    CLEAR     56  32  40 NW5       30.15S
BOOTHVILLE     CLEAR     57  41  55 NW9       30.13R
BELLE CHASSE   CLEAR     58  37  45 VRB5      30.12S
BOGALUSA*      NOT AVBL
GALLIANO*      CLEAR     55  33  42 N6        30.12S
NEW ROADS*     FAIR      55  34  45 NW6       30.17S
GONZALES*      FAIR      56  34  43 NW5       30.14R
HAMMOND*       CLEAR     54  34  47 N5        30.13S
HOUMA*         CLEAR     57  34  41 NW6       30.13R
PORT FOURCHON* CLEAR     59  41  51 N3        30.13S

$$

LAZ041-044-053-054-130000-
SOUTHWEST LOUISIANA

CITY           SKY/WX    TMP DP  RH WIND       PRES   REMARKS
LAKE CHARLES   CLEAR     58  29  33 NW9       30.20R
LAFAYETTE      CLEAR     58  34  40 NW8       30.18R
PATTERSON      CLEAR     58  36  43 N6        30.16R
SALT POINT       N/A     57  39  51 NW6       30.15R
NEW IBERIA     CLEAR     56  33  42 N9        30.18R
CHENAULT AIRPK NOT AVBL

$$

LAZ027-028-130000-
CENTRAL LOUISIANA

CITY           SKY/WX    TMP DP  RH WIND       PRES   REMARKS
FORT POLK      CLEAR     55  29  37 NW6       30.19S
ALEXANDRIA INT CLEAR     54  32  43 NW9       30.18S
ALEXANDRIA     CLEAR     54  32  43 NW3       30.18S

$$

LAZ001-002-130000-
NORTHWEST LOUISIANA

CITY           SKY/WX    TMP DP  RH WIND       PRES   REMARKS
SHREVEPORT     PTCLDY    54  18  24 NW8       30.21S
BARKSDALE AFB  CLEAR     53  17  24 NW9       30.21S
DTN SHREVEPORT CLEAR     55  18  23 W6        30.22S

$$

LAZ014-016-130000-
NORTHEAST LOUISIANA

CITY           SKY/WX    TMP DP  RH WIND       PRES   REMARKS
MONROE         CLEAR     52  25  35 N6        30.19S
TALLULAH       CLEAR     52  27  38 NW6       30.18S

$$





USA.gov is the U.S. government's official web portal to all federal, state and local government web resources and services.